(119) Althaea
ephemeris date magn radius delta ra dec elong phase
Opposition4 Jun 202611.92.671 AU1.662 AU16h56m-15°23'172.7°2.8°
Today14 Jul 202612.62.640 AU1.813 AU16h28m-14°24'135.9°15.5°
(119) Althaea - 2026-07-14
astro.vanbuitenen.nl


 
-1 year
-1 month
-1 day
Now
+1 day
+1 month
+1 year

The interactive orbit chart above shows the body's path through the solar system and its position at the given date. Green and blue lines are shown perpendicular to the ecliptic plane: Green if the path is above the ecliptic plane, blue if it is below. (Left-click and drag to rotate the view; Right-click and drag to move the view; Use scroll wheel to zoom in our out.)

The orbital elements of Althaea are:

            e (Eccentricity)                : 0.0817258
            a (Semimajor axis)              : 2.5812783
            i (Inclination)                 : 5.78624
            Ω (Longitude of ascending node) : 203.61091
            ω (Argument of perihelion)      : 170.23459
            M (Mean anomaly)                : 250.01801
            Epoch                           : 2026 Jun 09

            L (Longitude of perihelion)     : 193.89430
            B (Latitude of perihelion)      : 0.97981
            P (Orbital period in years)     : 4.15            
        

The light curve chart below shows the estimated development of the minor planet's magnitude.


The all-sky chart below shows the path of the minor planet over the same period as the light curve. The current position is marked yellow.





The following chart shows the path of the minor planet in the next few days. The field of view is optimized for (~10x50) binoculars and finderscopes.




Ephemerides:
Date       Time       RA (2000)    DEC (2000)    delta   radius  elong  phase   PA    magn
2026-07-14 00:00 UT   16 28 18.7   -14 24 18     1.813    2.640  135.9   15.5   107   12.6 
2026-07-14 07:57 UT   16 28 12.4   -14 24 25     1.816    2.640  135.6   15.6   106   12.6 
2026-07-15 00:00 UT   16 28 00.1   -14 24 41     1.821    2.639  134.9   15.8   106   12.6 
2026-07-16 00:00 UT   16 27 43.0   -14 25 11     1.830    2.638  133.9   16.1   106   12.6 
2026-07-17 00:00 UT   16 27 27.6   -14 25 46     1.838    2.638  132.9   16.4   106   12.6 
2026-07-18 00:00 UT   16 27 13.8   -14 26 27     1.847    2.637  131.9   16.7   106   12.7 
2026-07-19 00:00 UT   16 27 01.6   -14 27 13     1.856    2.636  130.9   16.9   105   12.7 
2026-07-20 00:00 UT   16 26 51.1   -14 28 05     1.865    2.635  130.0   17.2   105   12.7 
2026-07-21 00:00 UT   16 26 42.2   -14 29 03     1.874    2.634  129.0   17.4   105   12.7 
2026-07-22 00:00 UT   16 26 34.8   -14 30 05     1.883    2.633  128.0   17.7   105   12.7 
2026-07-23 00:00 UT   16 26 29.2   -14 31 13     1.892    2.633  127.1   17.9   105   12.7 
2026-07-24 00:00 UT   16 26 25.1   -14 32 27     1.902    2.632  126.1   18.2   104   12.8 
2026-07-25 00:00 UT   16 26 22.6   -14 33 45     1.911    2.631  125.2   18.4   104   12.8 
2026-07-26 00:00 UT   16 26 21.8   -14 35 08     1.921    2.630  124.2   18.6   104   12.8 
2026-07-27 00:00 UT   16 26 22.6   -14 36 36     1.931    2.629  123.3   18.8   104   12.8 
2026-07-28 00:00 UT   16 26 24.9   -14 38 09     1.941    2.628  122.4   19.0   104   12.8 
2026-07-29 00:00 UT   16 26 28.9   -14 39 47     1.951    2.628  121.4   19.2   103   12.9 
2026-07-30 00:00 UT   16 26 34.4   -14 41 29     1.961    2.627  120.5   19.4   103   12.9 
2026-07-31 00:00 UT   16 26 41.5   -14 43 15     1.972    2.626  119.6   19.6   103   12.9 
2026-08-01 00:00 UT   16 26 50.1   -14 45 06     1.982    2.625  118.7   19.8   103   12.9 
2026-08-02 00:00 UT   16 27 00.3   -14 47 02     1.993    2.624  117.8   20.0   103   12.9 
2026-08-03 00:00 UT   16 27 12.1   -14 49 01     2.003    2.623  116.9   20.2   103   12.9 
2026-08-04 00:00 UT   16 27 25.4   -14 51 05     2.014    2.622  116.0   20.3   102   13.0 
2026-08-05 00:00 UT   16 27 40.2   -14 53 12     2.025    2.622  115.1   20.5   102   13.0 
2026-08-06 00:00 UT   16 27 56.5   -14 55 23     2.036    2.621  114.3   20.7   102   13.0 
2026-08-07 00:00 UT   16 28 14.3   -14 57 38     2.046    2.620  113.4   20.8   102   13.0 
2026-08-08 00:00 UT   16 28 33.6   -14 59 57     2.058    2.619  112.5   21.0   102   13.0 
2026-08-09 00:00 UT   16 28 54.4   -15 02 19     2.069    2.618  111.7   21.1   102   13.0 
2026-08-10 00:00 UT   16 29 16.7   -15 04 45     2.080    2.617  110.8   21.2   101   13.0 
2026-08-11 00:00 UT   16 29 40.5   -15 07 14     2.091    2.617  109.9   21.4   101   13.1 
2026-08-12 00:00 UT   16 30 05.7   -15 09 46     2.102    2.616  109.1   21.5   101   13.1 
2026-08-13 00:00 UT   16 30 32.3   -15 12 21     2.114    2.615  108.3   21.6   101   13.1 


    Terminology:
            
    delta:  distance between minor planet and earth in AU
    radius: distance between minor planet and sun in AU
    magn:   magnitude (brightness) estimate    
    ra:     right ascension in hours (24h = 360deg)
    dec:    declination in degrees
    elong:  elongation in degrees (angle sun-earth-minor planet)    
    phase:  phase angle in degrees (angle sun-minor planet-earth)        
    AU:     Astronomical Unit (mean distance between earth and sun: 149597870.7 km
    

Orbital elements provided by the MPC (Minor Planet Center).
Calculations by a modified version of AAPlus, a C# implementation of the AA+ project by PJ Naughter from the algorithms presented in the book "Astronomical Algorithms" by Jean Meeus.
NGC2000 dso catalog and star labels from VizieR as provided by the Strasbourg astronomical Data Center.
Tycho2 catalog from the ESO archive.